Location: Newark
(58.8333°N, 23.5833°E)
Time: 11:57:26
(UTC+00:00)

METEOR M2 - Pass Details

Date: 15 December 2019
Orbit: 819 x 827 km, 98.5° (Epoch: 20 January)

Event Time Altitude Azimuth Distance (km) Brightness Sun altitude
Exits shadow 19:42:02 13° 311° (NW) 2,212 ? -44.7°
Drops below altitude 10° 19:42:57 10° 320° (NW) 2,430 ? -44.8°
Sets 19:46:02 0° 338° (NNW) 3,367 ? -45.2°
